• In Uzbekistan
  • List of Countries
  • For 7 days
  • Water Temperature
  • Satellite Maps
  • Weather Map
  • Weather Widgets
  • user-avatar
    Login

    Hourly Weather Córdoba

    Today, 9 December, Friday

    Time Temperature Precipitation Wind Pressure Humidity
    00:00 +19°C° 0 mm 1 mps 723 mmHg 55%
    01:00 +18°C° 0 mm 1 mps 723 mmHg 57%
    02:00 +16°C° 0 mm 1 mps 723 mmHg 60%
    03:00 +16°C° 0 mm 1 mps 722 mmHg 61%
    04:00 +16°C° 0 mm 1 mps 722 mmHg 61%
    05:00 +15°C° 0 mm 1 mps 722 mmHg 62%
    06:00 +18°C° 0.1 mm 1 mps 722 mmHg 55%
    07:00 +19°C° 0.1 mm 2 mps 723 mmHg 48%
    08:00 +21°C° 0.1 mm 2 mps 723 mmHg 41%
    09:00 +21°C° 0.1 mm 2 mps 723 mmHg 40%
    10:00 +23°C° 0.1 mm 2 mps 723 mmHg 39%
    11:00 +22°C° 0.1 mm 3 mps 723 mmHg 38%
    12:00 +24°C° 0 mm 3 mps 723 mmHg 35%
    13:00 +25°C° 0 mm 3 mps 722 mmHg 33%
    14:00 +26°C° 0 mm 3 mps 722 mmHg 30%
    15:00 +27°C° 0 mm 3 mps 721 mmHg 30%
    16:00 +27°C° 0 mm 3 mps 721 mmHg 29%
    17:00 +27°C° 0 mm 3 mps 720 mmHg 29%
    18:00 +25°C° 0 mm 2 mps 720 mmHg 34%
    19:00 +23°C° 0 mm 2 mps 720 mmHg 40%
    20:00 +20°C° 0 mm 2 mps 720 mmHg 45%
    21:00 +19°C° 0 mm 2 mps 720 mmHg 47%
    22:00 +19°C° 0 mm 2 mps 721 mmHg 49%
    23:00 +19°C° 0 mm 2 mps 721 mmHg 51%

    Tomorrow, 10 December, Saturday

    Time Temperature Precipitation Wind Pressure Humidity
    00:00 +19°C° 0 mm 2 mps 721 mmHg 53%
    01:00 +18°C° 0 mm 2 mps 721 mmHg 55%
    02:00 +18°C° 0 mm 2 mps 720 mmHg 58%
    03:00 +18°C° 0 mm 2 mps 720 mmHg 58%
    04:00 +18°C° 0 mm 2 mps 720 mmHg 58%
    05:00 +18°C° 0 mm 2 mps 720 mmHg 58%
    06:00 +20°C° 0 mm 2 mps 720 mmHg 50%
    07:00 +24°C° 0 mm 3 mps 721 mmHg 42%
    08:00 +27°C° 0 mm 3 mps 721 mmHg 34%
    09:00 +29°C° 0 mm 3 mps 721 mmHg 30%
    10:00 +30°C° 0 mm 3 mps 721 mmHg 27%
    11:00 +33°C° 0 mm 4 mps 721 mmHg 24%
    12:00 +34°C° 0 mm 4 mps 721 mmHg 23%
    13:00 +34°C° 0 mm 3 mps 720 mmHg 21%
    14:00 +35°C° 0 mm 3 mps 720 mmHg 19%
    15:00 +35°C° 0 mm 3 mps 719 mmHg 19%
    16:00 +35°C° 0 mm 3 mps 719 mmHg 18%
    17:00 +35°C° 0 mm 3 mps 718 mmHg 18%
    18:00 +31°C° 0 mm 3 mps 718 mmHg 22%
    19:00 +29°C° 0 mm 3 mps 718 mmHg 26%
    20:00 +26°C° 0 mm 2 mps 718 mmHg 30%
    21:00 +26°C° 0 mm 2 mps 719 mmHg 32%
    22:00 +25°C° 0 mm 2 mps 720 mmHg 35%
    23:00 +25°C° 0 mm 2 mps 720 mmHg 37%

    Day after tomorrow, 11 December, Sunday

    Time Temperature Precipitation Wind Pressure Humidity
    00:00 +25°C° 0 mm 3 mps 720 mmHg 35%
    01:00 +26°C° 0 mm 4 mps 721 mmHg 32%
    02:00 +26°C° 0 mm 5 mps 721 mmHg 30%
    03:00 +23°C° 0 mm 5 mps 721 mmHg 34%
    04:00 +22°C° 0 mm 5 mps 722 mmHg 38%
    05:00 +20°C° 0 mm 5 mps 722 mmHg 42%
    06:00 +22°C° 0 mm 5 mps 723 mmHg 39%
    07:00 +23°C° 0 mm 6 mps 723 mmHg 37%
    08:00 +26°C° 0 mm 6 mps 724 mmHg 34%
    09:00 +27°C° 0 mm 6 mps 724 mmHg 30%
    10:00 +29°C° 0 mm 5 mps 724 mmHg 27%
    11:00 +32°C° 0 mm 5 mps 724 mmHg 23%
    12:00 +33°C° 0 mm 4 mps 723 mmHg 22%
    13:00 +34°C° 0 mm 4 mps 722 mmHg 21%
    14:00 +35°C° 0 mm 4 mps 722 mmHg 19%
    15:00 +35°C° 0 mm 3 mps 721 mmHg 19%
    16:00 +35°C° 0 mm 3 mps 720 mmHg 19%
    17:00 +35°C° 0 mm 3 mps 719 mmHg 19%
    18:00 +33°C° 0 mm 3 mps 719 mmHg 24%
    19:00 +29°C° 0 mm 2 mps 719 mmHg 28%
    20:00 +26°C° 0 mm 2 mps 718 mmHg 33%
    21:00 +25°C° 0 mm 2 mps 718 mmHg 34%
    22:00 +25°C° 0 mm 2 mps 718 mmHg 34%
    23:00 +24°C° 0 mm 2 mps 718 mmHg 35%

    12 December, Monday

    Time Temperature Precipitation Wind Pressure Humidity
    00:00 +24°C° 0 mm 2 mps 718 mmHg 35%
    01:00 +24°C° 0 mm 2 mps 717 mmHg 34%
    02:00 +24°C° 0 mm 3 mps 716 mmHg 34%
    03:00 +22°C° 0 mm 3 mps 716 mmHg 36%
    04:00 +22°C° 0 mm 3 mps 716 mmHg 37%
    05:00 +22°C° 0 mm 3 mps 716 mmHg 39%
    06:00 +26°C° 0 mm 4 mps 716 mmHg 34%
    07:00 +29°C° 0 mm 5 mps 717 mmHg 29%
    08:00 +33°C° 0 mm 6 mps 717 mmHg 24%
    09:00 +35°C° 0 mm 6 mps 717 mmHg 22%
    10:00 +38°C° 0 mm 6 mps 717 mmHg 19%
    11:00 +39°C° 0 mm 6 mps 717 mmHg 16%
    12:00 +40°C° 0 mm 5 mps 716 mmHg 16%
    13:00 +41°C° 0 mm 5 mps 716 mmHg 15%
    14:00 +41°C° 0 mm 5 mps 715 mmHg 14%
    15:00 +41°C° 0 mm 4 mps 715 mmHg 15%
    16:00 +40°C° 0 mm 4 mps 715 mmHg 15%
    17:00 +39°C° 0 mm 3 mps 714 mmHg 15%
    18:00 +36°C° 0 mm 4 mps 715 mmHg 20%
    19:00 +33°C° 0 mm 4 mps 715 mmHg 24%
    20:00 +29°C° 0 mm 5 mps 716 mmHg 29%
    21:00 +28°C° 0 mm 5 mps 717 mmHg 29%
    22:00 +27°C° 0 mm 6 mps 718 mmHg 29%
    23:00 +24°C° 0 mm 7 mps 719 mmHg 29%

    13 December, Tuesday

    Time Temperature Precipitation Wind Pressure Humidity
    00:00 +23°C° 0 mm 6 mps 720 mmHg 27%
    01:00 +22°C° 0 mm 6 mps 720 mmHg 26%
    02:00 +21°C° 0 mm 6 mps 721 mmHg 25%
    03:00 +20°C° 0 mm 5 mps 721 mmHg 24%
    04:00 +19°C° 0 mm 5 mps 721 mmHg 23%
    05:00 +18°C° 0 mm 4 mps 722 mmHg 22%
    06:00 +19°C° 0 mm 4 mps 723 mmHg 20%
    07:00 +21°C° 0 mm 5 mps 724 mmHg 18%
    08:00 +22°C° 0 mm 5 mps 724 mmHg 16%
    09:00 +25°C° 0 mm 5 mps 724 mmHg 15%
    10:00 +27°C° 0 mm 4 mps 725 mmHg 14%
    11:00 +29°C° 0 mm 4 mps 725 mmHg 12%
    12:00 +30°C° 0 mm 4 mps 724 mmHg 12%
    13:00 +32°C° 0 mm 4 mps 723 mmHg 11%
    14:00 +33°C° 0 mm 4 mps 723 mmHg 11%
    15:00 +33°C° 0 mm 3 mps 722 mmHg 11%
    16:00 +33°C° 0 mm 3 mps 722 mmHg 11%
    17:00 +33°C° 0 mm 3 mps 721 mmHg 12%
    18:00 +29°C° 0 mm 3 mps 721 mmHg 15%
    19:00 +26°C° 0 mm 2 mps 722 mmHg 18%
    20:00 +23°C° 0 mm 2 mps 722 mmHg 21%
    21:00 +21°C° 0 mm 2 mps 722 mmHg 22%
    22:00 +21°C° 0 mm 1 mps 723 mmHg 24%
    23:00 +20°C° 0 mm 1 mps 723 mmHg 26%

    14 December, Wednesday

    Time Temperature Precipitation Wind Pressure Humidity
    00:00 +20°C° 0 mm 1 mps 723 mmHg 26%
    01:00 +19°C° 0 mm 1 mps 723 mmHg 26%
    02:00 +19°C° 0 mm 1 mps 722 mmHg 26%
    03:00 +18°C° 0 mm 1 mps 723 mmHg 25%
    04:00 +17°C° 0 mm 2 mps 723 mmHg 25%
    05:00 +17°C° 0 mm 2 mps 723 mmHg 24%
    06:00 +19°C° 0 mm 2 mps 724 mmHg 22%
    07:00 +21°C° 0 mm 2 mps 725 mmHg 19%
    08:00 +25°C° 0 mm 2 mps 726 mmHg 17%
    09:00 +27°C° 0 mm 2 mps 726 mmHg 16%
    10:00 +29°C° 0 mm 2 mps 726 mmHg 15%
    11:00 +31°C° 0 mm 2 mps 726 mmHg 13%
    12:00 +33°C° 0 mm 3 mps 725 mmHg 13%
    13:00 +35°C° 0 mm 3 mps 725 mmHg 12%
    14:00 +36°C° 0 mm 4 mps 724 mmHg 12%
    15:00 +36°C° 0 mm 4 mps 724 mmHg 13%
    16:00 +36°C° 0 mm 5 mps 724 mmHg 13%
    17:00 +36°C° 0 mm 5 mps 723 mmHg 14%
    18:00 +33°C° 0 mm 5 mps 723 mmHg 17%
    19:00 +29°C° 0 mm 4 mps 723 mmHg 21%
    20:00 +26°C° 0 mm 4 mps 724 mmHg 24%
    21:00 +25°C° 0 mm 3 mps 724 mmHg 25%
    22:00 +25°C° 0 mm 3 mps 724 mmHg 26%
    23:00 +24°C° 0 mm 3 mps 725 mmHg 26%
    Show more